Weather in Lysovka

Russia / Smolensk Oblast     54°10′33″N   32°44′45″E
temp.,
°C
wind,
m/s
gust,
m/s
humid.,
%
clouds,
%
prec.,
mm/h
press.,
hPa
HPBL,
m
11 april, sun
sun1100:00+4s412735 0.0 1024240
03:00+3s411765 0.0 1025228
06:00+2s38825 0.0 1026122
09:00+7ssw47643 0.0 1027247
12:00+13s46490 0.0 1028790
15:00+14ssw45433 0.0 10281318
18:00+14s24500 0.0 1028158
21:00+9se34660 0.0 103046
12 april, mon
mon1200:00+7se33700 0.0 103135
03:00+5se35760 0.0 103171
06:00+4ese35800 0.0 103179
09:00+9ese510619 0.0 1030425
12:00+13ese583678 0.0 1028944
15:00+14ese6749100 0.0 10261025
18:00+11se5774100 0.0 1025610
21:00+9se3989100 0.6 1025285
13 april, tue
tue1300:00+8se2492100 0.0 102479
03:00+8ese2293100 0.0 102336
06:00+8ene2293100 0.0 102320
09:00+12ese4680100 0.0 1022231
12:00+16sse4660100 0.0 1021583
15:00+18se4657100 0.0 10211158
18:00+16ese2467100 0.1 101971
21:00+12se3680100 0.2 102090
14 april, wed
wed1400:00+12se3680100 0.0 1019118
03:00+11se2385100 0.1 101939
06:00+10sse2291100 0.0 101829
09:00+11sse379292 0.3 1019298
12:00+14sse3578100 0.1 1018604
15:00+16sse356199 1.4 10171143
18:00+15se257399 0.9 1016277
21:00+12ne2283100 1.4 101624
15 april, thu
thu1500:00+10e3788100 0.4 1016149
03:00+10nnw3489100 1.0 101575
06:00+9ene41089100 0.2 1016299
09:00+12e487493 0.2 1015557
12:00+15ese566171 0.3 10151378
15:00+13sw236795 0.8 1015729
18:00+13nnw347343 0.1 1016329
21:00+9ne7128775 0.6 1017489